Location: Maignaut
(43.8886°N, 0.4051°E)
Time: 22:54:34
(UTC+00:00)

NOSS 3-2 (C) - Pass Details

Date: 27 February 2020
Orbit: 811 x 1401 km, 63.4° (Epoch: 06 April)

Event Time Altitude Azimuth Distance (km) Brightness Sun altitude
Rises 20:51:48 0° 322° (NW) 3,990 7.5 -34.1°
Reaches altitude 10° 20:54:23 10° 322° (NW) 3,106 6.8 -34.5°
Enters shadow 21:01:19 77° 312° (NW) 1,316 4.0 -35.6°
